Find FLP

NORAD ID: 42831 Int'l Des: 2017-042 Owner: IRSS Country: D operational
LEOCIRCULARRETROGRADESSO

Live Position

Loading 3D Globe...

About FLP

Description loading...

Upcoming Passes

Passes for default location (London). Set your location on the main map for personalized predictions.

Altitude History

Loading altitude history...

Two-Line Element Set

1 42831U 17042G 26104.51852161 .00001889 00000-0 15296-3 0 9996
2 42831 97.4397 262.6308 0019087 342.7471 17.3102 15.00755225476901
Epoch: Apr 14, 2026 • Age: 6 hours

Current Status

Altitude 580.1 km
Velocity 7.56 km/s
Sub-Earth Point 2.15°N, 30.32°W
Launch Date Jul 14, 2017
Age 8.7 years
Type other

Technical Details

Classification Payload
Mass 120.00 kg
Dry Mass 120.00 kg
Total Mass 120.00 kg
Length 0.60 m
Diameter 0.60 m
Span 2.10 m
Shape Box + 2 pan
Manufacturer IRSS
Bus Type FLP
Phase Status In Orbit
Owner/State IRSS/D

Most Searched